Terminal Aerodrome Forecast
Issued by NWS

Home | Current Version | Previous Version | Text Only | Print | Product List | Glossary On
Versions: 1 2 3 4 5 6 7 8 9 10 11 12 13 14 15 16
000
FTUS46 KPDT 282300
TAFRDM
TAF
KRDM 282320Z 2900/2924 21020G30KT P6SM -SHRA BKN050 OVC070
     FM290300 20012G20KT P6SM VCSH OVC050
     FM291200 29007KT P6SM BKN050
     FM291700 31008KT P6SM SCT050=

USA.gov is the U.S. government's official web portal to all federal, state and local government web resources and services.